Tracking 23440 objects as of 13-Jun-2021
HD Live streaming from Space Station
objects crossing your sky now

ERS 1 DEB

Track ERS 1 DEB now!
10-day predictions


NORAD ID: 35262
Int'l Code: 1991-050R
Perigee: 712.5 km
Apogee: 740.5 km
Inclination: 98.4 °
Period: 99.2 minutes
Semi major axis: 7097 km
RCS: 0.0171 m2 (small)
Launch date: July 17, 1991
Source: European Space Agency (ESA)
Launch site: FRENCH GUIANA (FRGUI)

Note: This is SATELLITE DEBRIS
aabbcc
Your satellite tracking list
Your tracking list is empty




NASA's NSSDC Master Catalog

Two Line Element Set (TLE):
1 35262U 91050R   21163.87119361  .00000439  00000-0  11992-3 0  9993
2 35262  98.3519 135.1808 0019726 308.9605  81.3025 14.51929339572130
Source of the keplerian elements: AFSPC